Agenzia del porto Bunker Vibo
  Sponsor: AZURE EMBARK SRL 

OBSERVATIONS
LATEST DOWNLOAD: 2018/12/18 15:40:42

STATION VHHH/450070
Tuesday, 18 December 2018, 14:30 UTC

pressure 1022 hPa
temperature 20 °C
dewpoint 10 °C
humidity 52.5%
wind ESE-12 knots
visibility Good
sky -
weather -

MAIN LOCATIONS

HOURLY DATA

HOTEL RESERVATION

WEATHER REPORT WEATHER REPORT

METEOMAR METEOMAR

WEATHER CHARTS WEATHER CHARTS

WEBCAM WEBCAM



 HONG KONG
COUNTRY
CHINA
     LAT
22.33 N
    LON
114.18 E
    ELEV
24 m
     REGION
-
     PROVINCE
-
     ZONE
-

LATEST 24 HOURS ( 48 OBSERVATIONS )
Observation time
UTC
temperature
humidity
%
pressure
hPa
  wind
knots
2018/12/18 14:3020 521022ESE-12
2018/12/18 14:0020 521022ESE-11
2018/12/18 13:3020 521022ESE-10
2018/12/18 13:0020 521022E-10
2018/12/18 12:3020 491022E-11
2018/12/18 12:0019 481021E-12
2018/12/18 11:3020 421021E-11
2018/12/18 11:0020 421021E-10
2018/12/18 10:3020 421021ESE-11
2018/12/18 10:0020 421020ESE-12
2018/12/18 09:3020 401020ESE-12
2018/12/18 09:0020 401020ESE-10
2018/12/18 08:3020 371020ESE-11
2018/12/18 08:0021 371020ESE-10
2018/12/18 07:0022 331020ESE-8
2018/12/18 06:3022 281020ESE-10
2018/12/18 06:0022 281020ESE-11
2018/12/18 05:3022 331021NNE-7
2018/12/18 05:0022 371021N-7
2018/12/18 04:3021 401022N-5
2018/12/18 04:0020 421023N-5
2018/12/18 03:3020 421024N-5
2018/12/18 03:0019 451024NE-6
2018/12/18 02:3019 481024NE-5
2018/12/18 02:0019 481024NE-6
2018/12/18 01:3019 481024NE-7
2018/12/18 01:0018 521024ENE-7
2018/12/18 00:3018 551024ENE-6
2018/12/18 00:0017 591023E-5
2018/12/17 23:3016 631023ENE-6
2018/12/17 23:0015 671023E-4
2018/12/17 22:3015 621023ENE-6
2018/12/17 22:0015 621022E-5
2018/12/17 21:3015 621022ESE-5
2018/12/17 21:0015 621022ESE-6
2018/12/17 20:3015 581022E-6
2018/12/17 20:0014 671022ESE-5
2018/12/17 19:3015 581022E-8
2018/12/17 19:0015 581022ESE-5
2018/12/17 18:3015 581022ESE-4
2018/12/17 18:0015 581022ESE-6
2018/12/17 17:3016 551022ESE-4
2018/12/17 17:0016 511022ESE-4
2018/12/17 16:3017 481022E-5
2018/12/17 16:0016 551023ESE-5
2018/12/17 15:3016 591023SE-4
2018/12/17 15:0016 591023SE-6
2018/12/17 14:3017 511023VAR-3
( Previous data )

ARCHIVE   LOCAL FORECASTS   CLIMATE AVERAGES